[Iaude] MPEC M88: 2019 GV184 [a=76.64,e=0.56,i=11.6,H=8.24]
    mpec at cfa.harvard.edu 
    mpec at cfa.harvard.edu
       
    Thu Jun 27 03:56:04 EDT 2024
    
    
  
M.P.E.C. 2024-M88                                 Issued 2024 June 27, 07:53 UT
     The Minor Planet Electronic Circulars contain information on unusual
         minor planets, routine data on comets and natural satellites,
         and occasional editorial announcements.  They are published
    on behalf of Division F of the International Astronomical Union by the
          Minor Planet Center, Smithsonian Astrophysical Observatory,
                          Cambridge, MA 02138, U.S.A.
			  
             Prepared using the Tamkin Foundation Computer Network
                              MPC at CFA.HARVARD.EDU
            URL https://www.minorplanetcenter.net/    ISSN 1523-6714
                                   2019 GV184                                   
Additional Observations:
     K19GI4V 1C2018 03 18.60007012 01 02.51 +03 39 23.9                WEM088T09
     K19GI4V 1C2018 04 22.42435511 58 39.70 +03 55 51.9                WEM088T09
     K19GI4V 1C2018 04 24.38259411 58 32.86 +03 56 36.3                WEM088T09
     K19GI4V 1C2018 04 24.40948611 58 32.77 +03 56 36.9                WEM088T09
     K19GI4V 1C2018 04 24.50407911 58 32.44 +03 56 38.9                WEM088T09
Observer details:
T09 Subaru Telescope, Maunakea.  Observer .  Measurer S. Deen.  8.3-m Subaru
    Telescope + CCD.
Orbital elements:
2019 GV184                                                                      
Epoch 2024 Mar. 31.0 TT = JDT 2460400.5                 Alexandersen            
M 346.42119              (2000.0)            P               Q                  
n   0.00146889     Peri.   78.55696     -0.48348697     +0.87315606             
a  76.6436790      Node   162.12354     -0.86103248     -0.46163509             
e   0.5574338      Incl.   11.64466     -0.15768136     -0.15649771             
P 671              H    8.24          G   0.15           U   8                  
Residuals in seconds of arc
180318 T09  0.0   0.0     190205 T09  0.1-  0.0     190303 T09  0.2-  0.3+
180422 T09  0.3+  0.0     190205 T09  0.1+  0.0     190404 T09  0.1+  0.1+
180424 T09  0.1-  0.1+    190303 T09  0.0   0.3-    190404 T09  0.2+  0.2-
180424 T09  0.1-  0.0     190303 T09  0.0   0.0     190404 T09  0.2-  0.2+
180424 T09  0.1-  0.0     190303 T09  0.0   0.2-    190404 T09  0.0   0.1+
190205 T09  0.0   0.2+    190303 T09  0.1-  0.1-
190205 T09  0.0   0.1-    190303 T09  0.0   0.3-
Ephemeris:
2019 GV184               a,e,i = 76.64, 0.56, 12                 q = 33.9199
Date    TT    R. A. (2000) Decl.     Delta      r    Elong.  Phase     V
2024 05 28    12 34 56.2 +02 00 11  38.7408 39.2612   120.3     1.3    24.3
...
2024 06 12    12 34 36.5 +02 01 05  38.9556 39.2457   105.9     1.4    24.4
...
2024 06 20    12 34 34.1 +02 00 38  39.0783 39.2374    98.3     1.5    24.4
...
2024 06 26    12 34 36.1 +01 59 52  39.1722 39.2312    92.6     1.5    24.4
2024 06 27    12 34 36.7 +01 59 42  39.1879 39.2302    91.6     1.5    24.4
2024 06 28    12 34 37.5 +01 59 32  39.2036 39.2291    90.7     1.5    24.4
...
2024 07 04    12 34 43.8 +01 58 17  39.2979 39.2230    85.0     1.5    24.4
...
2024 07 12    12 34 57.4 +01 56 06  39.4222 39.2147    77.5     1.5    24.4
...
2024 07 27    12 35 38.1 +01 50 31  39.6427 39.1992    63.4     1.3    24.4
M. P. C. Staff               (C) Copyright 2024 MPC           M.P.E.C. 2024-M88
    
    
More information about the Iaude
mailing list